Regional Weather Roundup
Issued by NWS Sterling, VA

Home | Current Version | Previous Version | Text Only | Print | Product List | Glossary Off
Versions: 1 2 3 4 5 6 7 8 9 10 11 12 13 14 15 16 17 18 19 20 21 22 23 24 25 26 27 28

000
ASUS41 KLWX 310310
RWRLWX

REGIONAL WEATHER ROUNDUP
NATIONAL WEATHER SERVICE BALTIMORE MD/WASHINGTON DC
1100 PM EDT MON MAY 30 2016

Note: "FAIR" indicates few or no clouds below 12,000 feet
with no significant weather and/or obstructions to visibility.
 TC=TEMPERATURE CELSIUS

 * =Non NWS site. Station does not report precipitation (e.g. rain,
    snow, etc.), thunder, or fog.

DCZ001-MDZ009-015-VAZ040>042-051-053>054-310400-
WASHINGTON METRO

CITY           SKY/WX    TMP DP  RH WIND       PRES   REMARKS
WASHINGTON NAT CLOUDY    73  69  87 S8        29.99F
DULLES         FAIR      72  69  90 S8        29.98S
ANDREWS AFB    CLOUDY    70  68  94 S6        29.99F
FT BELVOIR     CLOUDY    72  68  87 CALM      29.99S
QUANTICO       FAIR      72  68  87 S10       29.99F
COLLEGE PARK*  CLOUDY    72  68  88 S3        29.99S
LEESBURG*      MOCLDY    73  72  94 S9        29.99F
MANASSAS*      FAIR      70  70 100 SE5       29.99R

$$

MDZ006>007-011-014-310400-
BALTIMORE METRO

CITY           SKY/WX    TMP DP  RH WIND       PRES   REMARKS
BWI AIRPORT    MOCLDY    71  69  93 SE3       29.98F
MD SCIENCE CTR   N/A     73  69  87 MISG      30.00R
MARTIN STATE   CLOUDY    72  72 100 SE3       30.00F
ANNAPOLIS      CLOUDY    70  68  93 S6        29.99S
FORT MEADE*    CLOUDY    68  68 100 CALM      30.01F

$$

MDZ012-015-019>023-310400-
MARYLAND EASTERN SHORE

CITY           SKY/WX    TMP DP  RH WIND       PRES   REMARKS
OCEAN CITY     LGT RAIN  67  66  97 CALM      29.99F
SALISBURY      CLOUDY    67  66  97 NW3       29.99S
BAY BRIDGE AP* CLOUDY    70  66  88 S8        29.99F
CAMBRIDGE*       N/A     64  64 100 CALM      29.98F
EASTON*        CLOUDY    70  70 100 CALM      30.03F

$$

MDZ017>025-310400-
SOUTHERN MARYLAND

CITY           SKY/WX    TMP DP  RH WIND       PRES   REMARKS
PATUXENT RIVER CLOUDY    68  66  93 CALM      29.98F
ST INIGOES     CLOUDY    68  67  96 CALM      29.98F
LEONARDTOWN*   CLOUDY    66  64  94 CALM      30.00F

$$

MDZ003>005-310400-
NORTH CENTRAL MARYLAND

CITY           SKY/WX    TMP DP  RH WIND       PRES   REMARKS
FREDERICK*     CLOUDY    72  72 100 CALM      30.02R
HAGERSTOWN APT PTCLDY    73  64  73 CALM      29.99R
WESTMINSTER*   CLOUDY    70  64  83 SE3       30.01F

$$

MDZ501>502-310400-
WESTERN MARYLAND

CITY           SKY/WX    TMP DP  RH WIND       PRES   REMARKS
OAKLAND*       CLEAR     64  57  77 CALM      30.09S
CUMBERLAND*    CLEAR     66  66 100 CALM      30.04F

$$

VAZ025>031-310400-
SHENANDOAH VALLEY

CITY           SKY/WX    TMP DP  RH WIND       PRES   REMARKS
WINCHESTER*    FAIR      68  64  88 CALM      30.00R
FRONT ROYAL*   MOCLDY    68  68 100 S3        29.99S
LURAY*         LGT RAIN  68  68 100 S5        30.01F
NEW MARKET*    CLOUDY    67  66  96 W6        30.00F
STAUNTON*      CLOUDY    69  62  80 E12       30.05S
WAYNESBORO*    CLOUDY    71  65  83 N7        30.04R

$$

WVZ021-048>050-054>055-310400-
EASTERN WEST VIRGINIA PANHANDLE

CITY           SKY/WX    TMP DP  RH WIND       PRES   REMARKS
MARTINSBURG    FAIR      68  63  84 SW3       29.98R
PETERSBURG*    FAIR      67  65  95 CALM      30.03S

$$

VAZ036>039-050-310400-
CENTRAL FOOTHILLS

CITY           SKY/WX    TMP DP  RH WIND       PRES   REMARKS
CHARLOTTESVILL FAIR      73  68  84 CALM      29.99F
CULPEPER*      FAIR      69  69  99 CALM      29.99F
ORANGE*        FAIR      70  70 100 CALM      30.01F
GORDONSVILLE*  FAIR      69  69  99 N6        29.99F
WARRENTON*     FAIR      71  65  81 SE3       29.99S

$$

VAZ055>057-310400-
NORTH AND CENTRAL PIEDMONT

CITY           SKY/WX    TMP DP  RH WIND       PRES   REMARKS
FREDERICKSBRG* FAIR      69  69 100 CALM      29.98F
STAFFORD*      FAIR      67  65  92 CALM      30.03F

$$

NCZ024-NYZ072-PAZ021-071-VAZ022-071-310400-
OTHER REGIONAL OBSERVATIONS

CITY           SKY/WX    TMP DP  RH WIND       PRES   REMARKS
NEW YORK CITY  CLOUDY    73  67  81 VRB5      29.99R
PHILADELPHIA   CLOUDY    72  68  87 S9        29.98S
PITTSBURGH     PTCLDY    69  57  65 CALM      30.01S
ROANOKE        CLOUDY    72  65  78 SE5       30.03R
RICHMOND       MOCLDY    68  67  96 CALM      29.98F
RALEIGH        LGT RAIN  72  70  93 SE3       29.96F

$$

ANZ530>537-310400-
MARINE OBSERVATIONS

STATION/POSITION TIME  TEMP    WIND        PRES
                       AIR SEA DIR/SP/G
                 (UTC) (F)     (DEG/KT/KT) (MB)
THOMAS PT LIGHT  0300   69 70  190/  8/  9 1016.8F
BALT KEY BRIDGE  0200                      1015.5R
COVE POINT       0200                      1016.3R
LEWISETTA        0200      71              1015.2R
SOLOMONS ISLAND  0200      68                N/A
PINEY POINT      0200          220/  4/  4   N/A

$$





USA.gov is the U.S. government's official web portal to all federal, state and local government web resources and services.